Location: ??????????
(48.4699°N, 37.9573°E)
Time: 13:39:33
(UTC+00:00)

COSMOS 2406 - Pass Details

Date: 20 January 2021
Orbit: 841 x 866 km, 71.0° (Epoch: 26 February)

Event Time Altitude Azimuth Distance (km) Brightness Sun altitude
Rises 17:26:40 0° 330° (NNW) 3,459 6.8 -32.5°
Reaches altitude 10° 17:29:09 10° 329° (NNW) 2,518 6.0 -32.9°
Enters shadow 17:32:55 42° 321° (NW) 1,217 4.2 -33.5°
